STARLINK-32754, 62527

Orbit data source: Space-Track

STARLINK-32754, 62527 is a payload satellite owned by SpaceX/Seattle (US) in LEO that was launched on Wed, 08 Jan 2025 UTC via an FALCON 9 launch vehicle from the Air Force Eastern Test Range (AFETR). Payloads include a variety of satellites, spacecraft, and rockets equipped with specific instruments for various scientific and technological missions. These include communications satellites like Starlink; space stations such as the ISS; scientific satellites like the Hubble; Earth observation satellites from companies like Planet Labs, Umbra, and HawkEye 360; GPS; miniature CubeSats for education and research; and military/defense satellites.

Loading next visibility...
STARLINK-32754 details
Identifier
62527, 2025-004S
Orbit
LEO
Last TLE update15 hours ago
Origin
Flag of USSpaceX/Seattle (US)
ManufacturerSpaceX/Seattle
MissionOperational spacecraft
Bus & MotorSTARLINK V2M, Unknown motor
Mass730 kg wet, ~700 kg dry
Launch date (UTC)
2025-01-08 (1 month ago)
Launch vehicle
FALCON 9
Launch site
Air Force Eastern Test Range (AFETR)
Object type
Payload
Rocket body
Debris
Shape & HBRUnknown
Radar Cross SectionLarge (>1 m²)

Expand to show TLE details & history

TLE from 15 hours ago
0 STARLINK-32754
1 62527U 25004S   25046.85293116  .00001112  00000-0  33893-4 0  9990
2 62527  42.9992 248.2758 0001871 274.3102  85.7541 15.40693793  6307
Epoch: 2025-02-15T20:28Z
Definitive object data (Epoch: 2025-02-15T20:28:13.252Z)
Latitude0.00001°
Longitude155.12621°
Altitude443.74 km
Speed7.648 km/s
True Right ascension16h 33m 06s
True Declination0° 00' 00"
Sunlit
Object was in daylight at TLE epoch
Visualization TLE readout
Latitude11.46964°
Longitude-40.90268°
Altitude443.61 km
Speed7.648 km/s
Apparent Right ascension02h 50m 11s
Apparent Declination-13° 28' 48"
Sunlit
Object is in daylight
Visualization observer readout
Local Sidereal Time13:56:59
Azimuth332.435° NNW
Elevation-61.097°
Doppler factor1
Orbital elements
Apogee altitude447.294 km
Perigee altitude444.74 km
Semi-major axis6,824.154 km
Eccentricity0.0001871
Inclination42.9992°
RAAN248.2758°
Arg. of periapsis274.3102°
True anomaly85.77548°
Mean anomaly85.7541°
Eccentric anomaly85.76479°
Mean motion3.85008 °/min
BSTAR0.000033893
Orbital period93.5 mins
Loading maneuver chart data...
Loading historical data...
Loading historical data...
Loading historical data...
Loading historical data...
Loading historical data...
Loading historical data...
Loading historical data...

STARLINK-32754 Visibility forecast

Observer location: undefined°, undefined

Span
Click to sort rows by Start time (UTC) header in descending order
Start Az.
Max El. time (UTC)
Max El. Az.
Max El.
End time (UTC)
End Az.
5 mins2025-02-16 16:55:40.515Z225.557° WSW2025-02-16 16:57:40.515Z177.104° S37.106°2025-02-16 17:00:40.515Z81.185° E
5 mins2025-02-16 18:33:40.515Z276.532° WNW2025-02-16 18:35:40.515Z319.807° NNW38.001°2025-02-16 18:38:40.515Z67.236° ENE
5 mins2025-02-16 20:12:40.515Z299.283° NW2025-02-16 20:14:40.515Z30.431° NE39.384°2025-02-16 20:17:40.515Z88.705° E
5 mins2025-02-16 21:50:40.515Z270.395° WNW2025-02-16 21:52:40.515Z194.327° SSW36.622°2025-02-16 21:55:40.515Z131.662° SE
|